Location: Bosdarros
(43.2167°N, 0.3667°W)
Time: 12:23:11
(UTC+00:00)

FENGYUN 1C DEB - Pass Details

Date: 27 October 2021
Orbit: 805 x 871 km, 98.8° (Epoch: 26 November)

Event Time Altitude Azimuth Distance (km) Brightness Sun altitude
Exits shadow 18:17:48 22° 91° (E) 1,701 ? -14.8°
Maximum altitude 18:19:24 26° 64° (ENE) 1,560 ? -15.1°
Drops below altitude 10° 18:23:43 10° 9° (N) 2,412 ? -15.8°
Sets 18:26:24 0° 357° (N) 3,356 ? -16.3°
